Content
SEND FEEDBACK

Daily
Averages
Monthly
Summary
United States of America

RAPID CITY, SOUTH DAKOTA


Home > North America > United States > South Dakota
Elevation: 963 meters     Latitude: 44 03N     Longitude: 103 04W

WEATHER
 
SELECT A DAY
Number of Records: 200,374;   Date Range: 1/1/95 - 8/12/14
 
SHARE

PRINT THIS DATA

[ ← Previous Day ]
WEATHER ALMANAC - 9 FEBRUARY, 2013
[ Next Day → ]
[ °F ]   °C
Weather ElementAverageHighLow
Temperature-2.8 °C3.3 °C (2:52 pm)-7 °C (1:48 am)
Dewpoint-5.5 °C-3 °C (10:59 am)-8 °C (1:48 am)
Humidity83 %100 % (6:24 am)54 % (12:52 pm)
Barometer1009.1 hPa1012.5 hPa (6:52 am)1004.7 hPa (1:52 pm)
Wind Speed26.1 km/h38.9 km/h (10:17 am)
Wind Gust50.1 km/h (11:52 pm)
Weather ElementAverage
Visibility11.1 km
Wind DirectionSSE (171 °)

Weather ElementTotal
Precipitation---
Heating Degree Days20.2 (Base 18.3)
Averaged from 39 records on 9 February, 2013
WEATHER CONDITIONS BREAKOUT
WIND DIRECTION BREAKOUT
WEATHER BY HOUR - 9 FEBRUARY, 2013
[ °F ]   °C
Local TimeTemperatureDewpointHumidityBarometerVisibilityWind DirectionWind SpeedGust SpeedPrecipitationEventsConditions
1:48 AM-7 °C-8 °C93 %1009.1 hPa16.1 kmNorth (360°)11.1 km/hScattered Clouds
1:52 AM-6.7 °C-7.8 °C92 %1012.2 hPa16.1 kmNorth (360°)11.1 km/hMostly Cloudy
2:22 AM-4 °C-6 °C86 %1009.1 hPa4.8 kmNorth (360°)14.8 km/hOvercast
2:52 AM-5 °C-6.1 °C92 %1011.9 hPa16.1 kmNorth (350°)14.8 km/hMostly Cloudy
3:52 AM-4.4 °C-6.1 °C88 %1012.2 hPa16.1 kmNNW (340°)5.6 km/hClear
4:52 AM-5.6 °C-6.7 °C92 %1011.9 hPa16.1 kmNorth (350°)22.2 km/hScattered Clouds
5:52 AM-5 °C-6.7 °C88 %1011.9 hPa16.1 kmNNE (30°)18.5 km/hPartly Cloudy
6:18 AM-6 °C-7 °C93 %1008.1 hPa8 kmNorth (10°)27.8 km/hMostly Cloudy
6:24 AM-6 °C-6 °C100 %1008.1 hPa2.9 kmNorth (10°)27.8 km/hOvercast
6:42 AM-6 °C-6 °C100 %1008.1 hPa1.3 kmNorth (10°)24.1 km/hOvercast
6:52 AM-5.6 °C-6.1 °C96 %1012.5 hPa1.6 kmNorth (10°)24.1 km/hOvercast
7:35 AM-6 °C-6 °C100 %1008.8 hPa3.2 kmNorth (10°)24.1 km/hOvercast
7:43 AM-5 °C-6 °C93 %1008.5 hPa2.4 kmNNE (20°)25.9 km/hOvercast
7:52 AM-5 °C-6.1 °C92 %1012.5 hPa1.3 kmNNE (20°)25.9 km/hOvercast
8:09 AM-5 °C-6 °C93 %1008.5 hPa0.3 kmNorth (10°)24.1 km/hFogLight Freezing Fog
8:17 AM-5 °C-6 °C93 %1008.8 hPa0.3 kmNorth (10°)27.8 km/hFogLight Freezing Fog
8:35 AM-4 °C-5 °C93 %1008.8 hPa0.8 kmNNE (20°)29.6 km/hFogLight Freezing Fog
8:52 AM-3.9 °C-4.4 °C96 %1012.2 hPa1.9 kmNorth (10°)27.8 km/hOvercast
9:11 AM-3 °C-4 °C93 %1008.5 hPa4 kmNorth (10°)35.2 km/hOvercast
9:18 AM-3 °C-4 °C93 %1008.5 hPa6.4 kmNorth (360°)29.6 km/h42.6 km/hOvercast
9:52 AM-2.8 °C-3.9 °C92 %1011.5 hPa9.7 kmNorth (360°)37 km/h46.3 km/hOvercast
10:17 AM-3 °C-4 °C93 %1008.5 hPa16.1 kmNorth (360°)38.9 km/hScattered Clouds
10:25 AM-2 °C-4 °C86 %1008.5 hPa16.1 kmNorth (360°)31.5 km/hMostly Cloudy
10:52 AM-1.7 °C-3.9 °C85 %1011.5 hPa16.1 kmNorth (360°)25.9 km/h35.2 km/hMostly Cloudy
10:59 AM-1 °C-3 °C86 %1008.1 hPa16.1 kmNorth (360°)29.6 km/hOvercast
11:31 AM1 °C-4 °C70 %1007.5 hPa16.1 kmNorth (10°)27.8 km/hScattered Clouds
11:52 AM1.1 °C-3.9 °C70 %1010.2 hPa16.1 kmNorth (10°)35.2 km/hClear
12:52 PM2.8 °C-5.6 °C54 %1008.8 hPa16.1 kmNorth (10°)29.6 km/h42.6 km/hClear
1:52 PM2 °C-5 °C60 %1004.7 hPa16.1 kmNorth (360°)35.2 km/h42.6 km/hScattered Clouds
2:52 PM3.3 °C-4.4 °C57 %1007.1 hPa16.1 kmNorth (360°)35.2 km/h44.4 km/hOvercast
3:52 PM2.2 °C-5 °C59 %1007.5 hPa16.1 kmNorth (10°)29.6 km/h38.9 km/hOvercast
4:52 PM1.1 °C-5 °C64 %1008.5 hPa16.1 kmNorth (10°)27.8 km/hOvercast
5:52 PM0 °C-5.6 °C66 %1008.8 hPa16.1 kmNNE (20°)22.2 km/hOvercast
6:52 PM-1.7 °C-5 °C78 %1008.8 hPa16.1 kmNNE (20°)18.5 km/hOvercast
7:52 PM-2.2 °C-5 °C81 %1008.1 hPa16.1 kmNorth (360°)22.2 km/hOvercast
8:52 PM-1.7 °C-6.1 °C72 %1008.5 hPa16.1 kmNorth (10°)22.2 km/hOvercast
9:52 PM-1.7 °C-6.7 °C69 %1007.5 hPa16.1 kmNorth (350°)29.6 km/h40.7 km/hOvercast
10:52 PM-1.1 °C-6.7 °C66 %1006.8 hPa16.1 kmNNW (340°)31.5 km/h46.3 km/hOvercast
11:52 PM-1.1 °C-7.2 °C64 %1006.8 hPa16.1 kmNNW (340°)33.3 km/h50.1 km/hOvercast
Hourly data recorded from KRAP, located 0 kilometers away from Rapid City, South Dakota







STORIES FROM OUR PARTNERS